KLM84X LFBD-EHAM

Flight info

Callsign KLM84X
Flight time N/A
Altitude 36000
Route CNA DCT ADABI DCT BOKNO UN858 VANAD UN874 BAMES UT191 PODEM UN873 BAZOS DCT LUMIL DCT BELOB UY873 DENUT
Aircraft B737/M-SDE2E3FGHIRWXY/LB1

Departure

Time 2026-04-28 15:06
Airport Bordeaux–Mérignac Airport (LFBD)

Arrival

Time N/A
Airport Amsterdam Airport Schiphol (EHAM)
Time Latitude Longitude Altitude Speed Heading
2026-04-28 14:49 44.83125 -0.70439 166 ft 0 kts 118°
2026-04-28 15:00 44.83126 -0.70439 166 ft 1 kts 118°
2026-04-28 15:01 44.83137 -0.70468 166 ft 4 kts 118°
2026-04-28 15:01 44.83150 -0.70501 166 ft 4 kts 118°
2026-04-28 15:01 44.83161 -0.70536 166 ft 4 kts 102°
2026-04-28 15:01 44.83162 -0.70560 166 ft 1 kts 80°
2026-04-28 15:02 44.83162 -0.70564 166 ft 0 kts 80°
2026-04-28 15:03 44.83179 -0.70534 166 ft 8 kts 11°
2026-04-28 15:04 44.83235 -0.70556 166 ft 10 kts 23°
2026-04-28 15:04 44.83311 -0.70452 165 ft 23 kts 45°
2026-04-28 15:04 44.83424 -0.70288 163 ft 23 kts 45°
2026-04-28 15:04 44.83534 -0.70131 162 ft 22 kts 45°
2026-04-28 15:05 44.83612 -0.70020 161 ft 14 kts 35°
2026-04-28 15:05 44.83701 -0.70030 160 ft 13 kts 336°
2026-04-28 15:05 44.83785 -0.70082 159 ft 14 kts 336°
2026-04-28 15:05 44.83832 -0.70168 161 ft 14 kts 226°
2026-04-28 15:06 44.83722 -0.70313 154 ft 44 kts 225°
2026-04-28 15:06 44.83335 -0.70865 168 ft 111 kts 225°
2026-04-28 15:06 44.82657 -0.71814 221 ft 157 kts 224°
2026-04-28 15:06 44.81862 -0.72949 779 ft 164 kts 224°
2026-04-28 15:07 44.81093 -0.74069 1646 ft 155 kts 225°
2026-04-28 15:07 44.80309 -0.75181 2273 ft 162 kts 225°
2026-04-28 15:07 44.79508 -0.76308 2921 ft 165 kts 226°
2026-04-28 15:07 44.78764 -0.77522 3496 ft 172 kts 248°
2026-04-28 15:08 44.78666 -0.79254 3786 ft 193 kts 291°
2026-04-28 15:08 44.79515 -0.80807 4042 ft 215 kts 331°
2026-04-28 15:08 44.81045 -0.81311 4294 ft 241 kts 359°
2026-04-28 15:08 44.82811 -0.81363 4740 ft 261 kts 359°
2026-04-28 15:09 44.84623 -0.81434 5631 ft 263 kts 358°
2026-04-28 15:09 44.86472 -0.81548 6445 ft 269 kts 357°
2026-04-28 15:09 44.88373 -0.81694 7244 ft 276 kts 355°
2026-04-28 15:09 44.89656 -0.81800 7838 ft 279 kts 355°
2026-04-28 15:10 44.92260 -0.81930 9030 ft 288 kts
2026-04-28 15:10 44.94151 -0.80955 9932 ft 296 kts 33°
2026-04-28 15:10 44.95806 -0.79106 10526 ft 313 kts 40°
2026-04-28 15:10 44.97487 -0.76979 10971 ft 332 kts 41°
2026-04-28 15:11 44.99213 -0.74739 11762 ft 339 kts 41°
2026-04-28 15:11 45.00963 -0.72477 12650 ft 343 kts 41°
2026-04-28 15:11 45.02729 -0.70215 13489 ft 350 kts 40°
2026-04-28 15:11 45.04554 -0.67895 14283 ft 356 kts 40°
2026-04-28 15:12 45.06417 -0.65538 15089 ft 361 kts 40°
2026-04-28 15:12 45.08306 -0.63150 15905 ft 367 kts 40°
2026-04-28 15:12 45.10226 -0.60727 16733 ft 372 kts 40°
2026-04-28 15:12 45.12175 -0.58265 17548 ft 378 kts 39°
2026-04-28 15:13 45.14173 -0.55788 18330 ft 384 kts 35°
2026-04-28 15:13 45.16442 -0.54063 18956 ft 383 kts 15°
2026-04-28 15:13 45.19020 -0.52863 19687 ft 388 kts 14°
2026-04-28 15:13 45.21586 -0.51726 20373 ft 394 kts 13°
2026-04-28 15:14 45.24224 -0.50562 21050 ft 400 kts 13°
2026-04-28 15:14 45.26908 -0.49364 21730 ft 406 kts 14°
2026-04-28 15:14 45.29628 -0.48132 22405 ft 412 kts 14°
2026-04-28 15:14 45.32379 -0.46872 23070 ft 418 kts 14°
2026-04-28 15:15 45.35173 -0.45583 23689 ft 424 kts 14°
2026-04-28 15:15 45.37042 -0.44717 24044 ft 428 kts 14°
2026-04-28 15:15 45.40823 -0.42960 24826 ft 433 kts 14°
2026-04-28 15:15 45.43699 -0.41621 25394 ft 437 kts 14°
2026-04-28 15:16 45.46599 -0.40271 25947 ft 441 kts 14°
2026-04-28 15:16 45.49531 -0.38905 26478 ft 445 kts 14°
2026-04-28 15:16 45.52492 -0.37524 27007 ft 450 kts 14°
2026-04-28 15:16 45.55495 -0.36121 27534 ft 454 kts 14°
2026-04-28 15:17 45.58507 -0.34713 28088 ft 458 kts 13°
2026-04-28 15:17 45.61565 -0.33283 28434 ft 466 kts 13°
2026-04-28 15:17 45.64664 -0.31832 28905 ft 470 kts 14°
2026-04-28 15:17 45.67665 -0.29975 29392 ft 481 kts 27°
2026-04-28 15:18 45.70555 -0.27425 29894 ft 485 kts 30°
2026-04-28 15:18 45.73386 -0.24752 30291 ft 490 kts 31°
2026-04-28 15:18 45.76188 -0.22054 30686 ft 492 kts 31°
2026-04-28 15:18 45.78108 -0.20209 31002 ft 493 kts 31°
2026-04-28 15:19 45.81902 -0.16603 31630 ft 493 kts 30°
2026-04-28 15:19 45.84764 -0.13919 32246 ft 489 kts 30°
2026-04-28 15:19 45.87608 -0.11271 32857 ft 485 kts 30°
2026-04-28 15:19 45.89525 -0.09494 33228 ft 484 kts 30°
2026-04-28 15:20 45.92318 -0.06907 33711 ft 483 kts 30°
2026-04-28 15:20 45.95144 -0.04290 34138 ft 482 kts 30°
2026-04-28 15:20 45.97953 -0.01683 34615 ft 479 kts 29°
2026-04-28 15:20 46.00744 0.00913 35098 ft 474 kts 30°
2026-04-28 15:21 46.03502 0.03482 35595 ft 470 kts 30°
2026-04-28 15:21 46.06247 0.06043 35954 ft 470 kts 30°
2026-04-28 15:21 46.09005 0.08616 35936 ft 473 kts 30°
2026-04-28 15:22 46.14522 0.13778 35940 ft 470 kts 30°
2026-04-28 15:22 46.19976 0.18896 35962 ft 468 kts 30°
2026-04-28 15:23 46.25444 0.24036 35963 ft 469 kts 30°
2026-04-28 15:23 46.30881 0.29161 35965 ft 470 kts 30°
2026-04-28 15:24 46.36359 0.34337 35964 ft 470 kts 30°
2026-04-28 15:24 46.41841 0.39530 35976 ft 471 kts 30°
2026-04-28 15:25 46.47334 0.44747 35957 ft 471 kts 30°
2026-04-28 15:25 46.52822 0.49970 35971 ft 471 kts 30°
2026-04-28 15:26 46.58609 0.54043 35986 ft 461 kts 11°
2026-04-28 15:26 46.64825 0.56138 35973 ft 458 kts
2026-04-28 15:27 46.71064 0.58071 35973 ft 458 kts
2026-04-28 15:27 46.77293 0.60081 35976 ft 458 kts
2026-04-28 15:28 46.83517 0.62140 35987 ft 458 kts
2026-04-28 15:28 46.89712 0.64202 35990 ft 458 kts
2026-04-28 15:29 46.95938 0.66275 35986 ft 458 kts
2026-04-28 15:29 47.02166 0.68352 36001 ft 459 kts
2026-04-28 15:30 47.08429 0.69809 36007 ft 452 kts 359°
2026-04-28 15:30 47.14679 0.70366 36006 ft 452 kts 358°
2026-04-28 15:31 47.20964 0.70911 36023 ft 453 kts 358°
2026-04-28 15:31 47.27257 0.71543 36023 ft 453 kts 359°
2026-04-28 15:32 47.33529 0.72205 36021 ft 454 kts 359°
2026-04-28 15:32 47.39836 0.72871 36040 ft 454 kts 359°
2026-04-28 15:33 47.46152 0.73536 36023 ft 454 kts 359°
2026-04-28 15:33 47.52381 0.75053 36019 ft 462 kts 13°
2026-04-28 15:34 47.58483 0.78103 36013 ft 463 kts 15°
2026-04-28 15:34 47.64573 0.81225 36025 ft 463 kts 15°
2026-04-28 15:35 47.70684 0.84267 36004 ft 462 kts 14°
2026-04-28 15:35 47.79821 0.88776 36034 ft 461 kts 14°
2026-04-28 15:36 47.85913 0.91802 36036 ft 462 kts 15°
2026-04-28 15:36 47.92006 0.94678 35997 ft 461 kts 12°
2026-04-28 15:37 47.98269 0.96721 35931 ft 459 kts
2026-04-28 15:37 48.04617 0.97293 35879 ft 455 kts 353°